Погода в Гурзуфе

Россия / Республика Крым     44°32′50″N   34°17′29″E
В апреле 2022 года жителям России запретили посещать сайт meteo.paraplan.net по решению Генеральной прокуратуры. Аудитория сайта уменьшилась в 10 раз. Владельцы сайта не видят смысла в поддержке погодного сервера в таких условиях. Сайт будет закрыт в октябре.
темп.,
°C
ветер,
м/с
пор.,
м/с
влажн.,
%
обл.,
%
осадки,
мм/ч
давл.,
гПа
погр.,
м
30 сентября, пт
пт3000:00+19с128162 0.0 101426
03:00+18ссв22810 0.0 101555
06:00+18ссв22800 0.0 101555
09:00+20всв12750 0.0 1016119
12:00+20в22760 0.0 1017258
15:00+20в12811 0.0 1017242
18:00+19св11880 0.0 101841
21:00+19ссв11860 0.0 101923
1 октября, сб
сб100:00+19ссз11860 0.0 101916
03:00+19зсз11755 0.0 101912
06:00+19зсз11715 0.0 102012
09:00+21в11655 0.0 102168
12:00+21ююз22676 0.0 1021348
15:00+22ююз45665 0.0 1019295
18:00+21юз3473100 0.0 101955
21:00+20зюз2371100 0.0 101825
2 октября, вс
вс200:00+20зюз227299 0.0 101713
03:00+19з117484 0.0 101511
06:00+19ссв1174100 0.0 101411
09:00+20всв127370 0.0 101288
12:00+20ю0270100 0.0 1010187
15:00+19св0276100 0.1 1008143
18:00+19з368298 0.3 1006305
21:00+18сз4585100 3.6 1005460
3 октября, пн
пн300:00+17зсз3479100 1.8 1006429
03:00+16сз467592 1.9 10081064
06:00+14сз467430 0.1 1010738
09:00+15сз346514 0.1 1012830
12:00+15зсз246353 0.1 10131113
15:00+15сз346030 0.1 10141055
18:00+15сз34632 0.1 1015780
21:00+13сз43702 0.1 1017364
4 октября, вт
вт400:00+13сз33692 0.0 1018272
03:00+13сз32662 0.0 1018226
06:00+13сз22652 0.0 1019224
09:00+15ссз11560 0.0 1019403
12:00+16ююв325324 0.0 1020863
15:00+16ююв325614 0.1 1019634
18:00+15ююв226213 0.0 1020558
21:00+15всв016641 0.0 1020489